Weather reports worldwide

Advertisment
Fair Isle, United Kingdom (3008): temperature & dewpoint: 10.12.2019 02:00:00 - 16.12.2019 02:00:00 (GMT)Fair Isle, United Kingdom (3008): temperature -20cm & temperature -100cm: 10.12.2019 02:00:00 - 16.12.2019 02:00:00 (GMT)Fair Isle, United Kingdom (3008): wind speed & gusts: 10.12.2019 02:00:00 - 16.12.2019 02:00:00 (GMT)Fair Isle, United Kingdom (3008): wind direction: 10.12.2019 02:00:00 - 16.12.2019 02:00:00 (GMT)Fair Isle, United Kingdom (3008): reduced air pressure: 10.12.2019 02:00:00 - 16.12.2019 02:00:00 (GMT)Fair Isle, United Kingdom (3008): visibility: 10.12.2019 02:00:00 - 16.12.2019 02:00:00 (GMT)Fair Isle, United Kingdom (3008): precipitation: 10.12.2019 02:00:00 - 16.12.2019 02:00:00 (GMT)
Date & Time tt [°C] td [°C] tt -20cm [°C] tt -100cm [°C] ff [km/h] ff [kn] fx [km/h] fx [kn] dd ppp [hPa] vv [km] rr [mm]
16.12.2019 02:00:00 5,5 1,7 - - 24 13 - - SSW 987,5 30 0,0
16.12.2019 01:00:00 5,6 1,7 - - 24 13 - - SSW 987,2 35 0,0
16.12.2019 00:00:00 5,8 2,2 - - 28 15 - - SSW 986,8 16 0,0
15.12.2019 23:00:00 5,7 1,2 - - 26 14 - - SW 986,5 25 0,0
15.12.2019 22:00:00 5,4 0,5 - - 26 14 - - SW 986,0 23 0,0
15.12.2019 21:00:00 5,1 1,0 - - 29 16 - - SW 985,2 21 0,0
15.12.2019 20:00:00 4,9 0,8 - - 29 16 - - SW 984,4 19 0,0
15.12.2019 19:00:00 5,3 1,9 - - 29 16 - - SW 983,5 24 0,0
15.12.2019 18:00:00 5,4 3,0 - - 28 15 - - SW 982,8 21 0,0
15.12.2019 17:00:00 5,5 3,1 - - 26 14 - - WSW 982,0 29 0,0
15.12.2019 16:00:00 5,4 3,4 - - 22 12 - - WSW 981,3 20 0,0
15.12.2019 15:00:00 5,4 3,4 - - 24 13 - - WSW 980,4 15 0,0
15.12.2019 14:00:00 5,1 3,0 - - 15 8 - - W 979,6 21 0,0
15.12.2019 13:00:00 5,4 2,9 - - 24 13 - - W 978,7 30 0,2
15.12.2019 12:00:00 6,0 3,4 - - 22 12 - - W 977,8 24 0,0
15.12.2019 11:00:00 5,6 3,0 - - 13 7 - - W 977,2 14 0,8
15.12.2019 10:00:00 5,6 2,1 - - 11 6 - - W 976,3 27 0,0
15.12.2019 09:00:00 5,0 1,6 6,2 7,0 9 5 - - WNW 975,6 30 0,0
15.12.2019 08:00:00 4,9 2,2 - - 5 3 - - NW 974,7 20 0,0
15.12.2019 07:00:00 4,3 2,4 - - 5 3 - - N 974,3 23 1,4
15.12.2019 06:00:00 4,9 2,9 - - 5 3 - - NW 973,7 11 0,2
15.12.2019 05:00:00 4,6 2,7 - - 5 3 - - W 973,3 19 0,0
15.12.2019 04:00:00 4,9 3,0 - - 11 6 - - WSW 973,1 27 0,0
15.12.2019 03:00:00 4,1 1,1 - - 13 7 - - S 973,0 35 0,0
15.12.2019 02:00:00 5,7 2,5 - - 18 10 - - SSE 973,0 30 0,0
15.12.2019 01:00:00 5,7 1,5 - - 24 13 - - SSE 973,2 40 0,0
15.12.2019 00:00:00 5,6 2,4 - - 21 11 - - SSE 973,3 30 0,0
14.12.2019 23:00:00 5,7 2,6 - - 24 13 - - SSE 973,2 45 0,0
14.12.2019 22:00:00 5,4 2,1 - - 24 13 - - S 973,1 30 0,0
14.12.2019 21:00:00 4,7 0,7 - - 26 14 - - S 973,0 50 0,0
14.12.2019 20:00:00 4,8 0,2 - - 29 16 - - SSW 972,8 30 0,0
14.12.2019 19:00:00 4,9 0,5 - - 29 16 - - SSW 972,3 18 0,0
14.12.2019 18:00:00 4,8 0,1 - - 31 17 50 27 SW 971,6 30 0,0
14.12.2019 17:00:00 5,0 1,4 - - 37 20 54 29 SW 971,1 30 0,0
14.12.2019 16:00:00 5,0 2,1 - - 41 22 65 35 WSW 970,4 14 0,0
14.12.2019 15:00:00 5,4 2,2 - - 39 21 59 32 WSW 969,3 25 0,0
14.12.2019 14:00:00 5,6 3,3 - - 42 23 54 29 SW 968,4 16 0,0
14.12.2019 13:00:00 5,7 4,4 - - 37 20 48 26 SW 967,5 14 0,2
14.12.2019 12:00:00 6,0 5,2 - - 31 17 - - SW 966,8 6 0,4
14.12.2019 11:00:00 6,3 5,0 - - 22 12 - - SW 966,0 8 0,0
14.12.2019 10:00:00 6,0 4,9 - - 9 5 - - S 965,3 2,1 0,6
14.12.2019 09:00:00 5,9 4,7 6,2 7,0 21 11 - - SSE 965,4 11 0,0
14.12.2019 08:00:00 6,1 4,8 - - 16 9 - - SSE 965,1 8 0,0
14.12.2019 07:00:00 5,7 4,8 - - 15 8 - - S 964,9 10 0,0
14.12.2019 06:00:00 5,6 4,0 - - 13 7 - - SSW 964,7 30 0,0
14.12.2019 05:00:00 6,0 4,8 - - 15 8 - - S 964,6 11 0,2
14.12.2019 04:00:00 5,7 4,5 - - 15 8 - - S 964,8 13 0,0
14.12.2019 03:00:00 6,5 5,5 - - 26 14 54 29 SSE 964,6 7 0,2
14.12.2019 02:00:00 6,5 5,4 - - 24 13 50 27 E 965,5 6 0,6
14.12.2019 01:00:00 6,7 4,5 - - 34 18 55 30 ESE 966,5 21 0,2
14.12.2019 00:00:00 6,7 5,5 - - 31 17 50 27 E 967,1 5 0,8
13.12.2019 23:00:00 6,5 5,6 - - 34 18 52 28 E 968,0 7 0,0
13.12.2019 22:00:00 6,9 4,9 - - 28 15 50 27 ESE 968,5 17 0,0
13.12.2019 21:00:00 6,9 5,3 - - 28 15 50 27 ESE 968,8 16 0,4
13.12.2019 20:00:00 6,7 5,8 - - 22 12 50 27 SE 969,3 12 0,8
13.12.2019 19:00:00 6,4 5,4 - - 18 10 - - SE 969,9 5 0,6
13.12.2019 18:00:00 5,9 4,7 - - 13 7 - - SE 970,4 8 2,2
13.12.2019 17:00:00 6,1 5,2 - - 9 5 - - E 970,4 14 0,6
13.12.2019 16:00:00 6,0 5,2 - - 15 8 - - ESE 971,0 11 1,6
13.12.2019 15:00:00 6,2 5,0 - - 29 16 52 28 E 971,7 12 0,8
13.12.2019 14:00:00 5,9 4,6 - - 29 16 59 32 E 972,3 12 0,4
13.12.2019 13:00:00 6,1 4,7 - - 37 20 65 35 E 973,1 11 0,8
13.12.2019 12:00:00 5,8 4,6 - - 35 19 55 30 E 973,9 9 1,4
13.12.2019 11:00:00 5,7 4,4 - - 34 18 52 28 E 974,5 16 2,0
13.12.2019 10:00:00 5,2 4,1 - - 34 18 52 28 ENE 975,4 9 0,8
13.12.2019 09:00:00 5,4 3,9 6,2 7,0 31 17 54 29 E 975,7 8 0,4
13.12.2019 08:00:00 6,1 4,2 - - 28 15 48 26 E 975,6 28 0,0
13.12.2019 07:00:00 6,1 3,9 - - 26 14 - - E 975,7 40 0,4
13.12.2019 06:00:00 5,7 3,6 - - 21 11 - - E 975,7 7 0,4
13.12.2019 05:00:00 6,5 3,5 - - 21 11 - - E 975,5 23 0,0
13.12.2019 04:00:00 5,3 3,8 - - 22 12 - - ENE 975,8 30 0,0
13.12.2019 03:00:00 5,4 3,7 - - 18 10 - - E 976,0 30 0,0
13.12.2019 02:00:00 5,6 3,3 - - 22 12 - - E 976,1 45 0,6
13.12.2019 01:00:00 4,8 3,5 - - 15 8 - - ENE 976,4 7 0,2
13.12.2019 00:00:00 2,2 0,9 - - 11 6 - - NE 976,7 45 0,8
12.12.2019 23:00:00 4,7 2,6 - - 21 11 - - SE 977,1 15 0,4
12.12.2019 22:00:00 5,0 1,9 - - 8 4 - - SE 976,9 22 0,0
12.12.2019 21:00:00 4,2 0,8 - - 9 5 - - S 977,3 35 0,0
12.12.2019 20:00:00 4,3 1,1 - - 11 6 - - SSE 977,7 50 0,0
12.12.2019 19:00:00 4,0 0,7 - - 15 8 - - S 978,0 45 0,0
12.12.2019 18:00:00 4,7 0,9 - - 21 11 - - S 978,4 40 0,0
12.12.2019 17:00:00 5,0 1,4 - - 22 12 - - SSW 978,8 21 0,0
12.12.2019 16:00:00 5,1 1,1 - - 24 13 - - SSW 979,2 35 0,0
12.12.2019 15:00:00 4,9 1,2 - - 26 14 - - SW 979,7 25 0,0
12.12.2019 14:00:00 5,1 2,2 - - 28 15 - - SW 980,1 16 0,0
12.12.2019 13:00:00 5,5 3,4 - - 28 15 - - SW 980,5 17 0,0
12.12.2019 12:00:00 5,1 2,7 - - 34 18 46 25 SW 980,9 15 0,0
12.12.2019 11:00:00 4,9 3,0 - - 34 18 50 27 SW 981,4 13 0,2
12.12.2019 10:00:00 4,4 3,1 - - 34 18 55 30 SW 981,8 12 0,2
12.12.2019 09:00:00 3,7 2,8 6,4 7,2 35 19 67 36 SW 981,7 9 2,0
12.12.2019 08:00:00 3,8 2,7 - - 54 29 70 38 SW 981,4 11 0,4
12.12.2019 07:00:00 4,5 3,0 - - 44 24 68 37 SW 981,2 8 1,4
12.12.2019 06:00:00 3,7 2,5 - - 48 26 78 42 WSW 981,4 4,0 0,4
12.12.2019 05:00:00 5,2 2,9 - - 54 29 81 44 SW 980,7 14 0,0
12.12.2019 04:00:00 5,1 2,3 - - 48 26 80 43 SW 980,5 18 0,2
12.12.2019 03:00:00 4,6 2,8 - - 52 28 85 46 SW 980,4 13 0,2
12.12.2019 02:00:00 4,9 2,4 - - 59 32 94 51 SW 980,5 12 0,0
12.12.2019 01:00:00 5,1 3,1 - - 50 27 83 45 SW 980,5 10 0,0
12.12.2019 00:00:00 5,9 2,6 - - 48 26 78 42 WSW 980,0 12 0,2
11.12.2019 23:00:00 5,0 3,5 - - 44 24 91 49 SW 979,8 9 0,2
11.12.2019 22:00:00 5,8 4,8 - - 54 29 85 46 SW 978,8 6 0,8
11.12.2019 21:00:00 5,4 4,1 - - 59 32 100 54 SSW 978,1 8 1,6
11.12.2019 20:00:00 4,4 2,9 - - 68 37 93 50 SSW 977,2 3,2 0,6
11.12.2019 19:00:00 4,7 3,1 - - 68 37 93 50 SW 977,8 11 3,2
11.12.2019 18:00:00 5,3 3,3 - - 67 36 100 54 SSW 977,8 9 0,2
11.12.2019 17:00:00 5,4 2,5 - - 72 39 102 55 SSW 977,4 11 0,0
11.12.2019 16:00:00 5,5 2,3 - - 68 37 106 57 SSW 977,6 11 0,0
11.12.2019 15:00:00 5,9 2,1 - - 67 36 100 54 SSW 977,6 8 0,0
11.12.2019 14:00:00 6,2 1,9 - - 68 37 91 49 SSW 978,3 10 0,0
11.12.2019 13:00:00 6,2 1,7 - - 67 36 89 48 SSW 979,1 10 0,0
11.12.2019 12:00:00 6,1 1,5 - - 65 35 87 47 SSW 979,5 11 0,0
11.12.2019 11:00:00 5,7 1,6 - - 65 35 89 48 SSW 980,6 14 0,0
11.12.2019 10:00:00 5,6 1,8 - - 63 34 89 48 SSW 981,0 13 0,0
11.12.2019 09:00:00 5,5 2,0 6,7 7,2 59 32 87 47 SSW 981,0 13 0,0
11.12.2019 08:00:00 5,3 1,7 - - 63 34 87 47 SSW 981,3 15 0,0
11.12.2019 07:00:00 5,8 1,6 - - 67 36 85 46 SW 981,0 11 0,0
11.12.2019 06:00:00 5,7 2,0 - - 54 29 85 46 SW 981,4 11 1,0
11.12.2019 05:00:00 5,3 1,9 - - 57 31 113 61 SW 981,1 13 0,0
11.12.2019 04:00:00 5,1 1,9 - - 70 38 96 52 SW 981,0 16 0,8
11.12.2019 03:00:00 4,2 2,1 - - 67 36 100 54 WSW 981,1 4,7 0,4
11.12.2019 02:00:00 6,0 2,8 - - 55 30 81 44 SW 980,1 13 0,0
11.12.2019 01:00:00 5,3 3,2 - - 50 27 93 50 SW 979,7 17 0,2
11.12.2019 00:00:00 6,5 3,1 - - 55 30 80 43 SW 978,3 11 0,0
10.12.2019 23:00:00 6,4 3,6 - - 59 32 85 46 SW 977,1 7 0,0
10.12.2019 22:00:00 6,6 2,7 - - 59 32 94 51 SW 976,2 14 0,0
10.12.2019 21:00:00 6,9 3,6 - - 59 32 81 44 SW 975,8 10 0,0
10.12.2019 20:00:00 7,0 3,8 - - 57 31 78 42 SW 975,3 12 0,0
10.12.2019 19:00:00 6,6 3,7 - - 54 29 76 41 SW 974,9 14 0,0
10.12.2019 18:00:00 6,7 5,1 - - 44 24 70 38 WSW 974,8 14 1,0
10.12.2019 17:00:00 7,2 6,5 - - 42 23 78 42 WSW 974,4 6 0,2
10.12.2019 16:00:00 7,6 6,9 - - 68 37 109 59 SSW 973,8 5 0,6
10.12.2019 15:00:00 9,2 8,2 - - 61 33 89 48 S 973,2 6 0,0
10.12.2019 14:00:00 8,9 7,8 - - 67 36 91 49 S 975,1 5 0,0
10.12.2019 13:00:00 8,5 7,5 - - 68 37 93 50 S 977,1 5 0,0
10.12.2019 12:00:00 8,3 7,5 - - 70 38 100 54 S 979,3 6 0,2
10.12.2019 11:00:00 7,6 7,2 - - 70 38 104 56 S 982,0 4,0 1,2
10.12.2019 10:00:00 7,4 7,0 - - 76 41 106 57 S 984,4 3,1 1,0
10.12.2019 09:00:00 7,2 7,0 6,4 7,2 76 41 100 54 S 987,0 2,4 2,2
10.12.2019 08:00:00 6,9 5,6 - - 78 42 102 55 S 989,8 4,6 0,4
10.12.2019 07:00:00 6,5 5,6 - - 61 33 93 50 SSE 992,6 7 1,2
10.12.2019 06:00:00 7,1 4,7 - - 65 35 87 47 S 995,5 9 0,0
10.12.2019 05:00:00 7,3 5,2 - - 63 34 83 45 S 998,1 9 0,0
10.12.2019 04:00:00 7,2 5,2 - - 55 30 80 43 SSE 1000,6 9 0,0
10.12.2019 03:00:00 6,7 3,9 - - 55 30 76 41 SSE 1002,6 12 0,0
10.12.2019 02:00:00 5,7 2,2 - - 50 27 68 37 SSE 1005,1 16 0,0

tt = temperature
td = dewpoint
tt -20cm = temperature -20cm
tt -100cm = temperature -100cm
ff = wind speed
fx = gusts
dd = wind direction
ppp = reduced air pressure
vv = visibility
rr = precipitation

Next stations